Hourly Data Report for April 18, 2019

MIRAMICHI RCS
NEW BRUNSWICK
Current Station Operator: ECCC - MSC

47°00'34.000" N
65°27'54.000" W
33.00 m
8100989
71744
ACQ

Download Data

Hourly Data (April 2019)
Hourly Data Report for April 18, 2019
TIME
LST
Temp Definition
°C
Dew Point Definition
°C
Rel Hum Definition
%
Precip. Amount Definition
mm

Wind Dir Definition
10's deg

Wind Spd Definition
km/h
Visibility Definition
km
Stn Press Definition
kPa
Hmdx Definition


Wind Chill Definition


Weather Definition


00:00 -2.5 -4.3 87 0.0 27 6   101.92   -5 LegendNANA
01:00 -2.5 -4.7 84 0.0 28 2   101.96   -3 LegendNANA
02:00 -2.5 -4.9 84 0.0 26 7   101.93   -5 LegendNANA
03:00 -2.7 -4.9 85 0.0 26 7   101.97   -6 LegendNANA
04:00 -2.9 -4.9 86 0.0 23 5   101.99   -5 LegendNANA
05:00 -4.2 -5.6 90 0.0 25 5   102.02   -6 LegendNANA
06:00 -3.9 -5.4 89 0.0 27 4   102.09   -6 LegendNANA
07:00 -1.6 -4.0 84 0.0 26 5   102.15   -3 LegendNANA
08:00 0.8 -3.0 76 0.0 25 9   102.19     LegendNANA
09:00 4.3 -3.1 59 0.0 27 5   102.16     LegendNANA
10:00 7.9 -3.3 45 0.0 24 9   102.13     LegendNANA
11:00 9.1 -4.2 39 0.0 23 9   102.02     LegendNANA
12:00 10.3 -3.8 37 0.0 21 14   101.98     LegendNANA
13:00 10.4 -5.0 34 0.0 19 14   101.91     LegendNANA
14:00 10.9 -4.5 34 0.0 17 19   101.87     LegendNANA
15:00 10.4 -4.3 35 0.0 21 17   101.86     LegendNANA
16:00 9.9 -4.0 37 0.0 18 9   101.78     LegendNANA
17:00 9.8 -3.1 40 0.0 16 5   101.70     LegendNANA
18:00 9.0 -2.7 44 0.0 14 10   101.60     LegendNANA
19:00 8.3 -3.6 43 0.0 17 14   101.55     LegendNANA
20:00 7.9 -3.1 46 0.0 22 25   101.61     LegendNANA
21:00 5.2 0.1 70 0.0 19 16   101.64     LegendNANA
22:00 4.3 0.7 77 0.0 17 15   101.52     LegendNANA
23:00 3.9 0.1 76 0.0 16 16   101.34     LegendNANA

Notes on Data Quality.

Legend

  • E = Estimated
  • M = Missing
  • NA = Not Available*
  • [empty] = Indicates an unobserved value
Date modified: